| time (UTC) | temp F | wind direction | speed MPH | gust MPH | rain 1hr in | rain 24hr in | rain mn in | humidity % | barometer mb |
| 20260904175003 | 80 | 354 | 0.0 | 3.0 | 0.00 | 0.00 | 0.00 | 74 | 1011.5 |
| 20260904174003 | 80 | 315 | 1.0 | 5.0 | 0.00 | 0.00 | 0.00 | 74 | 1011.5 |
| 20260904173003 | 80 | 295 | 1.0 | 8.0 | 0.00 | 0.00 | 0.00 | 75 | 1011.4 |
| 20260904172003 | 79 | 279 | 1.0 | 7.0 | 0.00 | 0.00 | 0.00 | 76 | 1011.5 |
| 20260904171003 | 79 | 282 | 1.0 | 7.0 | 0.00 | 0.00 | 0.00 | 76 | 1011.7 |
| 20260904170213 | 79 | 287 | 0.0 | 3.0 | 0.00 | 0.00 | 0.00 | 78 | 1011.7 |
| 20260904165213 | 78 | 314 | 1.0 | 3.0 | 0.00 | 0.00 | 0.00 | 79 | 1011.6 |
| 20260904164213 | 78 | 241 | 0.0 | 2.0 | 0.00 | 0.00 | 0.00 | 83 | 1011.6 |
| 20260904163003 | 78 | 238 | 0.0 | 2.0 | 0.00 | 0.00 | 0.00 | 84 | 1011.7 |
| 20260904162003 | 78 | 237 | 0.0 | 1.0 | 0.00 | 0.00 | 0.00 | 88 | 1011.5 |
| 20260904161003 | 78 | 237 | 0.0 | 1.0 | 0.00 | 0.00 | 0.00 | 85 | 1011.7 |
| 20260904160003 | 77 | 263 | 0.0 | 2.0 | 0.00 | 0.00 | 0.00 | 85 | 1011.8 |
| 20260904155003 | 77 | 272 | 1.0 | 4.0 | 0.00 | 0.00 | 0.00 | 83 | 1011.9 |
| 20260904154003 | 76 | 257 | 1.0 | 3.0 | 0.00 | 0.00 | 0.00 | 85 | 1011.8 |
| 20260904153003 | 76 | 0 | 0.0 | 0.0 | 0.00 | 0.00 | 0.00 | 91 | 1011.8 |
| 20260904152003 | 76 | 304 | 0.0 | 3.0 | 0.00 | 0.00 | 0.00 | 89 | 1011.7 |
| 20260904151212 | 75 | 304 | 0.0 | 3.0 | 0.00 | 0.00 | 0.00 | 89 | 1011.8 |
| 20260904150003 | 75 | 0 | 0.0 | 0.0 | 0.00 | 0.00 | 0.00 | 93 | 1011.8 |
| 20260904145003 | 75 | 0 | 0.0 | 0.0 | 0.00 | 0.00 | 0.00 | 92 | 1011.9 |
| 20260904144003 | 75 | 0 | 0.0 | 0.0 | 0.00 | 0.00 | 0.00 | 91 | 1012.1 |
| 20260904143003 | 75 | 0 | 0.0 | 0.0 | 0.00 | 0.00 | 0.00 | 91 | 1012.3 |
| 20260904142003 | 74 | 0 | 0.0 | 0.0 | 0.00 | 0.00 | 0.00 | 92 | 1012.2 |
| 20260904141003 | 74 | 0 | 0.0 | 0.0 | 0.00 | 0.00 | 0.00 | 94 | 1012.1 |
| 20260904140003 | 73 | 0 | 0.0 | 0.0 | 0.00 | 0.00 | 0.00 | 94 | 1011.8 |
| 20260904135003 | 73 | 0 | 0.0 | 0.0 | 0.00 | 0.00 | 0.00 | 94 | 1012.0 |
| 20260904134003 | 72 | 0 | 0.0 | 0.0 | 0.00 | 0.00 | 0.00 | 94 | 1011.9 |
| 20260904133003 | 72 | 0 | 0.0 | 0.0 | 0.00 | 0.00 | 0.00 | 96 | 1012.1 |
| 20260904132003 | 71 | 0 | 0.0 | 0.0 | 0.00 | 0.00 | 0.00 | 97 | 1011.8 |
| 20260904131003 | 71 | 0 | 0.0 | 0.0 | 0.00 | 0.00 | 0.00 | 97 | 1011.8 |
| 20260904130004 | 71 | 0 | 0.0 | 0.0 | 0.00 | 0.00 | 0.00 | 97 | 1011.8 |
| 20260904125003 | 71 | 0 | 0.0 | 0.0 | 0.00 | 0.00 | 0.00 | 98 | 1011.9 |
| 20260904124003 | 70 | 0 | 0.0 | 0.0 | 0.00 | 0.00 | 0.00 | 98 | 1012.1 |
| 20260904123003 | 70 | 0 | 0.0 | 0.0 | 0.00 | 0.00 | 0.00 | 98 | 1012.1 |
| 20260904122213 | 70 | 0 | 0.0 | 0.0 | 0.00 | 0.00 | 0.00 | 98 | 1011.9 |
| 20260904121003 | 70 | 0 | 0.0 | 0.0 | 0.00 | 0.00 | 0.00 | 97 | 1012.2 |
| 20260904120003 | 70 | 0 | 0.0 | 0.0 | 0.00 | 0.00 | 0.00 | 98 | 1012.1 |
| 20260904115003 | 69 | 0 | 0.0 | 0.0 | 0.00 | 0.00 | 0.00 | 98 | 1012.1 |
| 20260904114213 | 69 | 0 | 0.0 | 0.0 | 0.00 | 0.00 | 0.00 | 97 | 1012.1 |
| 20260904113003 | 69 | 0 | 0.0 | 0.0 | 0.00 | 0.00 | 0.00 | 97 | 1012.0 |
| 20260904112213 | 68 | 0 | 0.0 | 0.0 | 0.00 | 0.00 | 0.00 | 97 | 1012.1 |
| 20260904111003 | 69 | 0 | 0.0 | 0.0 | 0.00 | 0.00 | 0.00 | 97 | 1011.8 |
| 20260904110003 | 69 | 0 | 0.0 | 0.0 | 0.00 | 0.00 | 0.00 | 98 | 1011.6 |
| 20260904105003 | 69 | 0 | 0.0 | 0.0 | 0.00 | 0.00 | 0.00 | 97 | 1011.6 |
| 20260904104003 | 68 | 0 | 0.0 | 0.0 | 0.00 | 0.00 | 0.00 | 98 | 1011.6 |
| 20260904103003 | 68 | 0 | 0.0 | 0.0 | 0.00 | 0.00 | 0.00 | 97 | 1011.3 |
| 20260904102003 | 68 | 0 | 0.0 | 0.0 | 0.00 | 0.00 | 0.00 | 97 | 1011.3 |
| 20260904101003 | 68 | 0 | 0.0 | 0.0 | 0.00 | 0.00 | 0.00 | 97 | 1011.3 |
| 20260904100004 | 68 | 0 | 0.0 | 0.0 | 0.00 | 0.00 | 0.00 | 97 | 1011.4 |
| 20260904095003 | 68 | 0 | 0.0 | 0.0 | 0.00 | 0.00 | 0.00 | 97 | 1011.3 |
| 20260904094003 | 68 | 0 | 0.0 | 0.0 | 0.00 | 0.00 | 0.00 | 97 | 1011.4 |
| 20260904093004 | 68 | 0 | 0.0 | 0.0 | 0.00 | 0.01 | 0.00 | 97 | 1011.4 |
| 20260904092214 | 68 | 0 | 0.0 | 0.0 | 0.00 | 0.01 | 0.00 | 97 | 1011.3 |
| 20260904091003 | 68 | 0 | 0.0 | 0.0 | 0.00 | 0.01 | 0.00 | 97 | 1011.2 |
| 20260904090003 | 68 | 0 | 0.0 | 0.0 | 0.00 | 0.02 | 0.00 | 97 | 1011.2 |
| 20260904085003 | 68 | 0 | 0.0 | 0.0 | 0.00 | 0.02 | 0.00 | 97 | 1011.1 |
| 20260904084003 | 68 | 0 | 0.0 | 0.0 | 0.00 | 0.02 | 0.00 | 96 | 1011.1 |
| 20260904083004 | 68 | 0 | 0.0 | 0.0 | 0.00 | 0.02 | 0.00 | 96 | 1011.0 |
| 20260904082003 | 68 | 0 | 0.0 | 0.0 | 0.00 | 0.02 | 0.00 | 96 | 1010.9 |
| 20260904081003 | 69 | 0 | 0.0 | 0.0 | 0.00 | 0.02 | 0.00 | 96 | 1010.8 |
| 20260904080003 | 69 | 0 | 0.0 | 0.0 | 0.00 | 0.02 | 0.00 | 97 | 1010.8 |
| 20260904075003 | 69 | 0 | 0.0 | 0.0 | 0.00 | 0.02 | 0.00 | 96 | 1010.7 |
| 20260904074213 | 69 | 0 | 0.0 | 0.0 | 0.00 | 0.02 | 0.00 | 96 | 1010.8 |
| 20260904073003 | 69 | 0 | 0.0 | 0.0 | 0.00 | 0.02 | 0.00 | 96 | 1010.5 |
| 20260904072213 | 69 | 0 | 0.0 | 0.0 | 0.00 | 0.02 | 0.00 | 96 | 1010.4 |
| 20260904071003 | 69 | 0 | 0.0 | 0.0 | 0.00 | 0.02 | 0.00 | 96 | 1010.2 |
| 20260904070003 | 69 | 0 | 0.0 | 0.0 | 0.00 | 0.02 | 0.00 | 96 | 1010.1 |
| 20260904065003 | 69 | 0 | 0.0 | 0.0 | 0.00 | 0.03 | 0.00 | 96 | 1009.9 |
| 20260904064003 | 69 | 0 | 0.0 | 0.0 | 0.00 | 0.04 | 0.00 | 96 | 1010.2 |
| 20260904063003 | 69 | 0 | 0.0 | 0.0 | 0.00 | 0.06 | 0.00 | 96 | 1010.2 |
| 20260904062003 | 70 | 0 | 0.0 | 0.0 | 0.00 | 0.09 | 0.00 | 96 | 1010.1 |
| 20260904061003 | 70 | 0 | 0.0 | 0.0 | 0.00 | 0.10 | 0.00 | 96 | 1010.2 |
| 20260904060003 | 70 | 0 | 0.0 | 0.0 | 0.00 | 0.11 | 0.00 | 96 | 1010.3 |
| 20260904055003 | 70 | 0 | 0.0 | 0.0 | 0.00 | 0.12 | 0.00 | 96 | 1010.3 |
| 20260904054003 | 70 | 0 | 0.0 | 0.0 | 0.00 | 0.13 | 0.00 | 96 | 1010.2 |
| 20260904053003 | 71 | 0 | 0.0 | 0.0 | 0.00 | 0.14 | 0.00 | 96 | 1010.2 |
| 20260904052003 | 71 | 0 | 0.0 | 0.0 | 0.00 | 0.14 | 0.00 | 96 | 1010.3 |
| 20260904051003 | 71 | 0 | 0.0 | 0.0 | 0.00 | 0.14 | 0.00 | 96 | 1010.3 |
| 20260904050003 | 71 | 0 | 0.0 | 0.0 | 0.00 | 0.15 | 0.00 | 96 | 1010.4 |
| 20260904045003 | 71 | 0 | 0.0 | 0.0 | 0.00 | 0.17 | 0.00 | 96 | 1010.6 |
| 20260904044003 | 71 | 0 | 0.0 | 0.0 | 0.00 | 0.17 | 0.00 | 96 | 1010.7 |
| 20260904043003 | 71 | 0 | 0.0 | 0.0 | 0.00 | 0.17 | 0.00 | 96 | 1010.7 |
| 20260904042003 | 71 | 0 | 0.0 | 0.0 | 0.00 | 0.18 | 0.00 | 96 | 1010.7 |
| 20260904041003 | 71 | 0 | 0.0 | 0.0 | 0.00 | 0.18 | 0.00 | 95 | 1010.7 |
| 20260904040004 | 71 | 0 | 0.0 | 0.0 | 0.00 | 0.19 | 0.00 | 95 | 1010.7 |
| 20260904035003 | 72 | 0 | 0.0 | 0.0 | 0.00 | 0.20 | 0.19 | 95 | 1010.9 |
| 20260904034003 | 72 | 0 | 0.0 | 0.0 | 0.00 | 0.22 | 0.19 | 95 | 1010.8 |
| 20260904033003 | 72 | 0 | 0.0 | 0.0 | 0.00 | 0.23 | 0.19 | 95 | 1011.2 |
| 20260904032003 | 72 | 0 | 0.0 | 0.0 | 0.00 | 0.23 | 0.19 | 95 | 1011.2 |
| 20260904031003 | 72 | 0 | 0.0 | 0.0 | 0.00 | 0.30 | 0.19 | 95 | 1011.4 |
| 20260904030003 | 72 | 0 | 0.0 | 0.0 | 0.00 | 0.40 | 0.19 | 95 | 1011.1 |
| 20260904025003 | 72 | 0 | 0.0 | 0.0 | 0.00 | 0.48 | 0.19 | 95 | 1011.1 |
| 20260904024213 | 72 | 0 | 0.0 | 0.0 | 0.00 | 0.51 | 0.19 | 94 | 1011.1 |
| 20260904023003 | 72 | 0 | 0.0 | 0.0 | 0.00 | 0.52 | 0.19 | 94 | 1011.0 |
| 20260904022003 | 72 | 0 | 0.0 | 0.0 | 0.00 | 0.53 | 0.19 | 94 | 1011.1 |
| 20260904021003 | 72 | 0 | 0.0 | 0.0 | 0.00 | 0.53 | 0.19 | 94 | 1011.1 |
| 20260904020003 | 73 | 0 | 0.0 | 0.0 | 0.00 | 0.53 | 0.19 | 94 | 1011.4 |
| 20260904015003 | 73 | 301 | 0.0 | 1.0 | 0.00 | 0.53 | 0.19 | 93 | 1011.5 |
| 20260904014003 | 73 | 0 | 0.0 | 0.0 | 0.00 | 0.53 | 0.19 | 93 | 1011.8 |
| 20260904013003 | 74 | 0 | 0.0 | 0.0 | 0.00 | 0.53 | 0.19 | 93 | 1011.8 |
| 20260904012003 | 74 | 0 | 0.0 | 0.0 | 0.00 | 0.53 | 0.19 | 93 | 1011.9 |
| 20260904011003 | 75 | 0 | 0.0 | 0.0 | 0.00 | 0.53 | 0.19 | 95 | 1011.7 |
| 20260904010003 | 75 | 248 | 0.0 | 3.0 | 0.00 | 0.53 | 0.19 | 95 | 1011.8 |
| 20260904005213 | 75 | 145 | 0.0 | 3.0 | 0.00 | 0.53 | 0.19 | 96 | 1012.0 |
| 20260904004003 | 75 | 0 | 0.0 | 0.0 | 0.00 | 0.53 | 0.19 | 95 | 1011.5 |
| 20260904003003 | 76 | 0 | 0.0 | 0.0 | 0.00 | 0.53 | 0.19 | 95 | 1011.0 |
| 20260904002003 | 76 | 0 | 0.0 | 0.0 | 0.00 | 0.53 | 0.19 | 95 | 1011.0 |
| 20260904001003 | 76 | 0 | 0.0 | 0.0 | 0.00 | 0.53 | 0.19 | 95 | 1011.2 |
| 20260904000003 | 76 | 0 | 0.0 | 0.0 | 0.00 | 0.53 | 0.19 | 94 | 1010.9 |
| 20260903235003 | 76 | 0 | 0.0 | 0.0 | 0.00 | 0.53 | 0.19 | 94 | 1011.0 |
| 20260903234212 | 76 | 0 | 0.0 | 0.0 | 0.00 | 0.53 | 0.19 | 94 | 1011.0 |
| 20260903233003 | 77 | 0 | 0.0 | 0.0 | 0.00 | 0.53 | 0.19 | 93 | 1010.8 |
| 20260903232003 | 77 | 0 | 0.0 | 0.0 | 0.00 | 0.53 | 0.19 | 93 | 1010.9 |
| 20260903231003 | 78 | 0 | 0.0 | 0.0 | 0.00 | 0.53 | 0.19 | 93 | 1011.0 |
| 20260903230003 | 78 | 0 | 0.0 | 0.0 | 0.00 | 0.53 | 0.19 | 93 | 1011.0 |
| 20260903225003 | 78 | 0 | 0.0 | 0.0 | 0.00 | 0.53 | 0.19 | 92 | 1010.9 |
| 20260903224003 | 79 | 0 | 0.0 | 0.0 | 0.00 | 0.53 | 0.19 | 92 | 1010.8 |
| 20260903223003 | 79 | 0 | 0.0 | 0.0 | 0.00 | 0.53 | 0.19 | 91 | 1010.9 |
| 20260903222003 | 80 | 0 | 0.0 | 0.0 | 0.00 | 0.53 | 0.19 | 91 | 1010.8 |
| 20260903221003 | 80 | 0 | 0.0 | 0.0 | 0.00 | 0.53 | 0.19 | 90 | 1010.4 |
| 20260903220003 | 80 | 0 | 0.0 | 0.0 | 0.00 | 0.53 | 0.19 | 91 | 1010.4 |
| 20260903215003 | 80 | 0 | 0.0 | 0.0 | 0.00 | 0.53 | 0.19 | 91 | 1010.6 |
| 20260903214003 | 79 | 0 | 0.0 | 0.0 | 0.00 | 0.53 | 0.19 | 91 | 1010.7 |
| 20260903213003 | 79 | 0 | 0.0 | 0.0 | 0.00 | 0.53 | 0.19 | 91 | 1010.7 |
| 20260903212003 | 79 | 0 | 0.0 | 0.0 | 0.00 | 0.53 | 0.19 | 91 | 1010.5 |
| 20260903211003 | 79 | 0 | 0.0 | 0.0 | 0.00 | 0.53 | 0.19 | 90 | 1010.6 |
| 20260903210003 | 80 | 0 | 0.0 | 0.0 | 0.00 | 0.53 | 0.19 | 89 | 1010.4 |
| 20260903205003 | 80 | 0 | 0.0 | 0.0 | 0.00 | 0.53 | 0.19 | 89 | 1010.5 |
| 20260903204213 | 80 | 0 | 0.0 | 0.0 | 0.00 | 0.53 | 0.19 | 89 | 1010.7 |
| 20260903203004 | 80 | 0 | 0.0 | 0.0 | 0.00 | 0.53 | 0.19 | 87 | 1010.8 |
| 20260903202003 | 82 | 98 | 1.0 | 5.0 | 0.00 | 0.53 | 0.19 | 83 | 1010.8 |
| 20260903201003 | 83 | 48 | 1.0 | 6.0 | 0.00 | 0.53 | 0.19 | 80 | 1010.8 |
| 20260903200003 | 82 | 79 | 2.0 | 3.0 | 0.00 | 0.53 | 0.19 | 80 | 1011.1 |
| 20260903195003 | 82 | 119 | 2.0 | 4.0 | 0.00 | 0.53 | 0.19 | 81 | 1011.2 |
| 20260903194003 | 83 | 64 | 2.0 | 4.0 | 0.00 | 0.53 | 0.19 | 79 | 1011.2 |
| 20260903193003 | 82 | 66 | 1.0 | 5.0 | 0.00 | 0.53 | 0.19 | 80 | 1011.3 |
| 20260903192003 | 82 | 81 | 2.0 | 6.0 | 0.00 | 0.53 | 0.19 | 80 | 1011.4 |
| 20260903191003 | 82 | 84 | 2.0 | 4.0 | 0.00 | 0.53 | 0.19 | 80 | 1011.5 |
| 20260903190003 | 83 | 58 | 1.0 | 5.0 | 0.00 | 0.53 | 0.19 | 77 | 1011.6 |
| 20260903185003 | 82 | 35 | 2.0 | 5.0 | 0.00 | 0.53 | 0.19 | 77 | 1011.8 |
| 20260903184003 | 82 | 65 | 1.0 | 6.0 | 0.00 | 0.53 | 0.19 | 77 | 1012.1 |
| 20260903183212 | 82 | 67 | 2.0 | 5.0 | 0.00 | 0.53 | 0.19 | 78 | 1012.2 |
| 20260903182003 | 81 | 95 | 2.0 | 7.0 | 0.00 | 0.53 | 0.19 | 81 | 1012.2 |
| 20260903181003 | 81 | 76 | 2.0 | 6.0 | 0.00 | 0.53 | 0.19 | 80 | 1012.5 |
| 20260903180003 | 82 | 50 | 1.0 | 5.0 | 0.00 | 0.53 | 0.19 | 82 | 1012.4 |